Location: Wheeling
(40.0640°N, 80.7210°W)
Time: 18:24:47
(UTC-05:00)

KAITUO 1B - Pass Details

Date: 28 October 2021
Orbit: 490 x 506 km, 97.4° (Epoch: 28 November)

Event Time Altitude Azimuth Distance (km) Brightness Sun altitude
Rises 19:15:47 0° 175° (S) 2,550 ? -10.3°
Reaches altitude 10° 19:17:52 10° 179° (S) 1,673 ? -10.7°
Maximum altitude 19:21:25 59° 259° (W) 570 ? -11.4°
Drops below altitude 10° 19:25:00 10° 340° (NNW) 1,688 ? -12.1°
Sets 19:27:07 0° 344° (NNW) 2,575 ? -12.5°
